Date String (YYYY-MM-DD hh:mm:ss) UTC,Instrument flags,Ambient pressure (hPa),Sample flow (lpm),Bypass flow (lpm),Sample temperature (°C),Ambient temperature (°C),ASC tube jacket temperature (°C),LED temperature (°C),Box temperature (°C),Sample RH (%),Span deviation,Mass concentration (μg/m³),Mass concentration (μg/m³),Mass concentration (μg/m³)
DateTimeUTC,F1_M11,P_M11,Q1_M11,Q2_M11,T1_M11,T2_M11,T3_M11,T4_M11,T5_M11,U1_M11,ZSPAN_M11,X0_M11,X2_M11,X1_M11
2022-03-24 17:00:00,,0825.5,5.00,0.00,25.5,24.8,00.0,34.3,27.4,10.5,0000.0,0005.40,0001.70,0000.96
2022-03-24 17:01:00,,0825.5,5.00,0.00,25.5,24.9,00.0,34.3,27.4,10.4,0000.0,0004.85,0001.69,0000.98
2022-03-24 17:02:00,,0825.5,5.00,0.00,25.6,24.9,00.0,34.4,27.5,10.5,0000.0,0004.68,0001.68,0000.98
2022-03-24 17:03:00,,0825.5,5.00,0.00,25.6,24.9,00.0,34.4,27.5,10.6,0000.0,0004.64,0001.69,0000.97
2022-03-24 17:04:00,,0825.5,5.00,0.00,25.6,25.0,00.0,34.4,27.5,10.3,0000.0,0004.47,0001.69,0000.97
2022-03-24 17:05:00,,0825.5,5.01,0.00,25.7,25.0,00.0,34.4,27.5,10.4,0000.0,0004.67,0001.73,0000.96
2022-03-24 17:06:00,,0825.4,5.00,0.00,25.7,25.0,00.0,34.4,27.6,10.4,0000.0,0004.66,0001.75,0000.96
2022-03-24 17:07:00,,0825.4,5.00,0.00,25.7,25.0,00.0,34.5,27.6,10.3,0000.0,0004.53,0001.70,0000.94
2022-03-24 17:08:00,,0825.4,5.00,0.00,25.7,25.0,00.0,34.5,27.6,10.1,0000.0,0004.47,0001.69,0000.93
2022-03-24 17:09:00,,0825.4,5.00,0.00,25.7,25.0,00.0,34.5,27.6,10.2,0000.0,0004.01,0001.69,0000.93
2022-03-24 17:10:00,,0825.5,4.99,0.00,25.7,25.1,00.0,34.5,27.6,10.2,0000.0,0003.57,0001.71,0000.92
2022-03-24 17:11:00,,0825.4,5.00,0.00,25.7,25.1,00.0,34.5,27.6,09.9,0000.0,0003.44,0001.68,0000.91
2022-03-24 17:12:00,,0825.4,5.00,0.00,25.8,25.1,00.0,34.5,27.6,10.1,0000.0,0003.44,0001.65,0000.89
2022-03-24 17:13:00,,0825.4,5.00,0.00,25.8,25.1,00.0,34.6,27.6,10.3,0000.0,0003.50,0001.63,0000.88
2022-03-24 17:14:00,,0825.4,5.00,0.00,25.8,25.1,00.0,34.6,27.7,10.4,0000.0,0003.53,0001.61,0000.88
2022-03-24 17:15:00,,0825.4,5.01,0.00,25.8,25.2,00.0,34.6,27.7,10.4,0000.0,0003.81,0001.59,0000.87
2022-03-24 17:16:00,,0825.4,5.00,0.00,25.9,25.2,00.0,34.6,27.7,10.2,0000.0,0003.84,0001.55,0000.88
2022-03-24 17:17:00,,0825.4,4.99,0.00,25.9,25.3,00.0,34.6,27.8,09.9,0000.0,0005.01,0001.53,0000.87
2022-03-24 17:18:00,,0825.4,5.00,0.00,25.9,25.3,00.0,34.7,27.8,10.1,0000.0,0005.43,0001.53,0000.86
2022-03-24 17:19:00,,0825.3,5.01,0.00,25.9,25.3,00.0,34.7,27.8,10.2,0000.0,0005.45,0001.55,0000.87
2022-03-24 17:20:00,,0825.4,5.02,0.00,26.0,25.3,00.0,34.7,27.8,10.1,0000.0,0006.20,0001.52,0000.86
2022-03-24 17:21:00,,0825.4,4.99,0.00,26.0,25.3,00.0,34.7,27.9,10.3,0000.0,0006.58,0001.49,0000.87
2022-03-24 17:22:00,,0825.4,4.99,0.00,26.0,25.3,00.0,34.8,27.9,09.6,0000.0,0007.06,0001.48,0000.87
2022-03-24 17:23:00,,0825.4,5.00,0.00,26.0,25.3,00.0,34.8,27.9,09.8,0000.0,0007.05,0001.49,0000.89
2022-03-24 17:24:00,,0825.4,5.02,0.00,26.0,25.3,00.0,34.8,27.9,10.0,0000.0,0006.93,0001.46,0000.89
2022-03-24 17:25:00,,0825.4,5.00,0.00,26.0,25.3,00.0,34.8,27.9,09.6,0000.0,0006.75,0001.43,0000.89
2022-03-24 17:26:00,,0825.4,5.00,0.00,26.0,25.3,00.0,34.8,27.9,09.2,0000.0,0006.51,0001.41,0000.88
2022-03-24 17:27:00,,0825.4,5.00,0.00,26.0,25.4,00.0,34.8,27.9,09.2,0000.0,0006.05,0001.37,0000.87
2022-03-24 17:28:00,,0825.4,5.00,0.00,26.0,25.4,00.0,34.9,27.9,09.1,0000.0,0005.24,0001.30,0000.86
2022-03-24 17:29:00,,0825.4,5.01,0.00,26.1,25.4,00.0,34.9,27.9,09.0,0000.0,0005.18,0001.29,0000.87
2022-03-24 17:30:00,,0825.5,5.01,0.00,26.1,25.4,00.0,34.9,28.0,09.3,0000.0,0005.32,0001.26,0000.87
2022-03-24 17:31:00,,0825.5,4.99,0.00,26.1,25.4,00.0,34.9,28.0,09.9,0000.0,0005.12,0001.29,0000.87
2022-03-24 17:32:00,,0825.4,4.98,0.00,26.1,25.4,00.0,34.9,28.0,09.9,0000.0,0004.47,0001.33,0000.88
2022-03-24 17:33:00,,0825.4,5.00,0.00,26.1,25.4,00.0,34.9,27.9,10.2,0000.0,0004.46,0001.33,0000.86
2022-03-24 17:34:00,,0825.4,5.01,0.00,26.1,25.3,00.0,34.9,27.9,09.8,0000.0,0004.32,0001.29,0000.84
2022-03-24 17:35:00,,0825.4,4.99,0.00,26.1,25.3,00.0,34.9,27.9,09.5,0000.0,0004.36,0001.29,0000.82
2022-03-24 17:36:00,,0825.4,4.99,0.00,26.1,25.3,00.0,34.9,27.9,10.3,0000.0,0004.35,0001.29,0000.82
2022-03-24 17:37:00,,0825.3,5.00,0.00,26.1,25.2,00.0,34.9,27.9,10.3,0000.0,0005.10,0001.27,0000.81
2022-03-24 17:38:00,,0825.4,5.01,0.00,26.1,25.2,00.0,34.9,27.9,09.9,0000.0,0005.65,0001.29,0000.81
2022-03-24 17:39:00,,0825.4,4.99,0.00,26.1,25.2,00.0,35.0,27.9,10.0,0000.0,0005.82,0001.34,0000.81
2022-03-24 17:40:00,,0825.5,4.99,0.00,26.1,25.3,00.0,35.0,27.9,09.8,0000.0,0005.04,0001.34,0000.81
2022-03-24 17:41:00,,0825.5,5.00,0.00,26.1,25.3,00.0,35.0,27.9,10.0,0000.0,0004.86,0001.35,0000.80
2022-03-24 17:42:00,,0825.5,5.01,0.00,26.1,25.4,00.0,35.0,27.9,09.9,0000.0,0004.63,0001.32,0000.80
2022-03-24 17:43:00,,0825.5,5.01,0.00,26.1,25.4,00.0,35.0,28.0,09.9,0000.0,0004.59,0001.28,0000.79
2022-03-24 17:44:00,,0825.4,5.00,0.00,26.1,25.5,00.0,35.0,28.0,09.8,0000.0,0004.13,0001.29,0000.80
2022-03-24 17:45:00,,0825.5,5.00,0.00,26.2,25.5,00.0,35.0,28.0,09.9,0000.0,0004.23,0001.29,0000.80
2022-03-24 17:46:00,,0825.5,5.00,0.00,26.2,25.5,00.0,35.0,28.0,09.9,0000.0,0004.71,0001.29,0000.81
2022-03-24 17:47:00,,0825.5,5.00,0.00,26.2,25.6,00.0,35.0,28.0,09.5,0000.0,0004.69,0001.27,0000.81
2022-03-24 17:48:00,,0825.5,5.00,0.00,26.2,25.6,00.0,35.1,28.0,09.4,0000.0,0003.92,0001.28,0000.81
2022-03-24 17:49:00,,0825.5,4.99,0.00,26.2,25.6,00.0,35.1,28.1,09.6,0000.0,0003.96,0001.32,0000.82
2022-03-24 17:50:00,,0825.5,5.02,0.00,26.2,25.7,00.0,35.1,28.1,09.8,0000.0,0004.38,0001.32,0000.81
2022-03-24 17:51:00,,0825.5,5.00,0.00,26.3,25.7,00.0,35.1,28.1,09.5,0000.0,0004.24,0001.29,0000.81
2022-03-24 17:52:00,,0825.5,4.99,0.00,26.3,25.7,00.0,35.1,28.2,08.9,0000.0,0004.53,0001.27,0000.79
2022-03-24 17:53:00,,0825.4,5.00,0.00,26.3,25.8,00.0,35.1,28.2,08.6,0000.0,0004.49,0001.24,0000.78
2022-03-24 17:54:00,,0825.4,5.01,0.00,26.4,25.8,00.0,35.2,28.2,08.6,0000.0,0004.32,0001.20,0000.78
2022-03-24 17:55:00,,0825.4,5.00,0.00,26.4,25.8,00.0,35.2,28.3,08.5,0000.0,0004.14,0001.16,0000.76
2022-03-24 17:56:00,,0825.3,5.00,0.00,26.4,25.9,00.0,35.2,28.3,08.6,0000.0,0005.76,0001.34,0000.76
2022-03-24 17:57:00,,0825.4,5.00,0.00,26.5,25.9,00.0,35.2,28.4,09.1,0000.0,0008.81,0001.71,0000.77
2022-03-24 17:58:00,,0825.4,4.99,0.00,26.5,25.9,00.0,35.2,28.4,09.1,0000.0,0008.94,0001.81,0000.77
2022-03-24 17:59:00,,0825.3,5.00,0.00,26.6,26.0,00.0,35.3,28.4,09.2,0000.0,0009.13,0001.85,0000.77
